Stations météo

réclame
Mon MeteoGroup
Calvi, France (7754): Température de l'air & dewpoint: 12.01.2019 13:00:00 - 18.01.2019 13:00:00 (CET)Calvi, France (7754): Température de l'air 5cm: 12.01.2019 13:00:00 - 18.01.2019 13:00:00 (CET)Calvi, France (7754): Vitesse du vent & gusts: 12.01.2019 13:00:00 - 18.01.2019 13:00:00 (CET)Calvi, France (7754): Direction du vent: 12.01.2019 13:00:00 - 18.01.2019 13:00:00 (CET)Calvi, France (7754): reduced air pressure: 12.01.2019 13:00:00 - 18.01.2019 13:00:00 (CET)Calvi, France (7754): visibility: 12.01.2019 13:00:00 - 18.01.2019 13:00:00 (CET)Calvi, France (7754): Quantités de précipitations: 12.01.2019 13:00:00 - 18.01.2019 13:00:00 (CET)
Date & Time tt [°C] td [°C] tt 5cm [°C] ff [km/h] ff [knt] fx [km/h] fx [knt] dd ppp [hPa] vv [km] rr [mm]
18.01.2019 13:00:00 - - - - - - - - - - -
18.01.2019 12:00:00 12,2 2,3 15,1 13 7 34 18 WSW 1012,1 52 0,0
18.01.2019 11:00:00 11,9 2,9 10,5 17 9 27 15 SSW 1012,5 60 0,0
18.01.2019 10:00:00 10,6 2,4 10,6 12 7 38 21 SW 1012,1 60 0,0
18.01.2019 09:00:00 10,9 4,1 9,7 19 11 32 17 SSW 1011,5 48 0,0
18.01.2019 08:00:00 10,1 3,4 9,4 17 9 40 21 SSW 1011,1 55 0,0
18.01.2019 07:00:00 10,4 3,0 9,2 26 14 44 24 SSW 1010,8 60 0,0
18.01.2019 06:00:00 10,7 2,8 9,6 29 16 47 25 SSW 1010,3 60 0,0
18.01.2019 05:00:00 10,5 3,7 9,7 23 12 48 26 SSW 1010,3 60 0,0
18.01.2019 04:00:00 10,6 3,8 9,7 23 12 42 23 SSW 1010,8 60 0,0
18.01.2019 03:00:00 11,2 5,1 10,2 23 12 41 22 S 1012,0 60 0,0
18.01.2019 02:00:00 11,4 6,7 10,6 21 12 42 23 SSW 1011,9 60 0,0
18.01.2019 01:00:00 11,9 6,2 10,6 24 13 43 23 SSW 1012,0 57 0,0
18.01.2019 00:00:00 11,4 5,5 10,6 20 11 40 22 SSW 1012,4 60 0,0
17.01.2019 23:00:00 11,4 5,5 10,1 17 9 38 20 SSW 1012,5 59 0,0
17.01.2019 22:00:00 11,1 5,4 9,8 17 9 32 18 SSW 1012,5 58 0,0
17.01.2019 21:00:00 11,1 6,0 9,4 16 9 34 19 SSW 1012,9 55 0,0
17.01.2019 20:00:00 10,8 6,5 9,0 17 9 32 17 SSW 1013,0 54 0,0
17.01.2019 19:00:00 10,5 7,0 8,8 14 7 32 17 S 1013,2 59 0,8
17.01.2019 18:00:00 11,6 6,9 9,8 15 8 34 18 SSW 1013,2 15 0,2
17.01.2019 17:00:00 11,8 6,3 10,7 14 7 26 14 SSW 1013,2 50 0,0
17.01.2019 16:00:00 11,8 6,3 11,8 16 9 32 17 SSW 1013,5 60 0,0
17.01.2019 15:00:00 11,8 7,9 10,6 11 6 26 14 SSW 1014,1 60 0,0
17.01.2019 14:00:00 12,2 6,5 12,1 22 12 37 20 S 1014,3 41 0,0
17.01.2019 13:00:00 13,5 5,9 14,0 16 9 34 18 SSW 1014,8 60 0,0
17.01.2019 12:00:00 13,9 5,5 13,9 14 7 25 13 SW 1015,5 60 0,0
17.01.2019 11:00:00 14,5 4,5 15,5 11 6 25 14 W 1015,9 60 0,0
17.01.2019 10:00:00 13,4 5,8 10,0 4 2 7 4 SE 1015,8 60 0,0
17.01.2019 09:00:00 11,0 4,2 9,8 6 4 16 8 SSE 1015,5 60 0,0
17.01.2019 08:00:00 11,3 4,3 10,0 7 4 25 13 SSW 1015,6 60 0,0
17.01.2019 07:00:00 10,4 5,0 9,3 10 6 24 13 SSE 1016,0 55 0,0
17.01.2019 06:00:00 10,5 5,5 9,6 17 9 27 14 S 1016,2 59 0,0
17.01.2019 05:00:00 10,9 4,8 10,1 18 10 31 17 SSW 1016,6 56 0,0
17.01.2019 04:00:00 11,1 4,3 10,0 11 6 22 12 S 1017,1 60 0,0
17.01.2019 03:00:00 10,5 4,0 7,4 14 8 18 10 SSE 1017,7 60 0,0
17.01.2019 02:00:00 8,1 3,9 6,6 10 5 15 8 S 1018,2 60 0,0
17.01.2019 01:00:00 7,9 4,1 6,6 9 5 14 7 SSE 1018,9 60 0,0
17.01.2019 00:00:00 7,6 4,0 6,5 2 1 11 6 S 1019,4 50 0,0
16.01.2019 23:00:00 7,3 4,1 6,2 4 2 13 7 S 1019,7 50 0,0
16.01.2019 22:00:00 7,4 3,8 3,7 5 3 19 10 SSW 1019,6 58 0,0
16.01.2019 21:00:00 5,4 2,2 3,9 7 4 14 8 SSW 1019,5 46 0,0
16.01.2019 20:00:00 7,1 3,7 5,8 9 5 13 7 S 1019,4 43 0,0
16.01.2019 19:00:00 8,2 4,4 6,4 8 4 15 8 SSW 1019,2 48 0,0
16.01.2019 18:00:00 7,7 3,9 6,7 9 5 15 8 SSW 1019,2 20 0,0
16.01.2019 17:00:00 11,3 5,8 9,2 4 2 12 7 W 1019,0 18 0,0
16.01.2019 16:00:00 14,1 5,7 14,2 7 4 14 8 NNE 1019,0 58 0,0
16.01.2019 15:00:00 13,8 5,9 14,4 9 5 14 8 N 1019,3 57 0,0
16.01.2019 14:00:00 14,7 5,5 16,4 9 5 17 9 NNW 1019,6 20 0,0
16.01.2019 13:00:00 14,9 5,4 16,5 8 4 15 8 N 1020,3 30 0,0
16.01.2019 12:00:00 15,4 3,8 20,2 0 0 7 4 N 1021,2 58 0,0
16.01.2019 11:00:00 13,5 3,3 15,2 3 2 8 4 SSW 1021,8 49 0,0
16.01.2019 10:00:00 10,5 3,1 4,7 2 1 13 7 WSW 1022,1 55 0,0
16.01.2019 09:00:00 4,6 0,5 1,5 7 4 13 7 S 1021,6 55 0,0
16.01.2019 08:00:00 2,8 -0,8 1,2 8 4 13 7 S 1021,4 60 0,0
16.01.2019 07:00:00 3,5 -0,5 0,9 11 6 16 9 SSW 1021,2 56 0,0
16.01.2019 06:00:00 4,8 0,9 1,6 14 7 17 9 SSW 1020,8 60 0,0
16.01.2019 05:00:00 3,4 0,4 1,6 11 6 14 7 S 1021,0 60 0,0
16.01.2019 04:00:00 5,8 1,5 3,1 13 7 18 10 SSW 1021,2 60 0,0
16.01.2019 03:00:00 6,1 2,2 2,2 10 6 16 8 SSW 1021,5 59 0,0
16.01.2019 02:00:00 3,8 0,1 2,6 6 3 17 9 SSW 1021,5 60 0,0
16.01.2019 01:00:00 3,9 1,3 2,4 5 3 16 9 S 1021,5 59 0,0
16.01.2019 00:00:00 6,2 3,0 2,9 13 7 17 9 SSW 1021,6 50 0,0
15.01.2019 23:00:00 4,5 2,0 3,0 5 3 18 10 S 1021,7 46 0,0
15.01.2019 22:00:00 5,3 2,1 4,4 14 7 17 9 SSW 1021,5 43 0,0
15.01.2019 21:00:00 5,5 2,3 3,3 10 6 14 8 S 1020,8 46 0,0
15.01.2019 20:00:00 5,5 3,2 3,6 4 2 13 7 S 1020,3 29 0,0
15.01.2019 19:00:00 6,4 3,0 5,0 8 5 14 7 SSW 1019,7 31 0,0
15.01.2019 18:00:00 8,8 3,6 6,5 4 2 17 9 SSE 1019,3 33 0,0
15.01.2019 17:00:00 11,6 5,9 10,6 10 5 13 7 S 1018,6 19 0,0
15.01.2019 16:00:00 15,4 6,7 17,2 8 5 17 9 S 1018,2 19 0,0
15.01.2019 15:00:00 16,3 6,7 17,9 10 5 22 12 SW 1018,1 19 0,0
15.01.2019 14:00:00 16,9 6,4 18,4 10 5 16 9 SSW 1018,1 49 0,0
15.01.2019 13:00:00 16,4 4,1 18,0 6 3 25 13 NNW 1018,2 58 0,0
15.01.2019 12:00:00 16,3 3,0 20,1 13 7 20 11 SSW 1018,5 55 0,0
15.01.2019 11:00:00 15,2 -0,2 17,1 3 1 5 3 NNE 1018,6 59 0,0
15.01.2019 10:00:00 12,1 -0,8 5,6 0 0 10 6 N 1017,8 55 0,0
15.01.2019 09:00:00 5,9 -5,4 2,4 6 4 17 9 S 1017,2 55 0,0
15.01.2019 08:00:00 4,8 -6,2 3,1 16 9 23 12 S 1015,6 60 0,0
15.01.2019 07:00:00 9,7 -8,4 6,1 5 3 23 12 WSW 1014,8 60 0,0
15.01.2019 06:00:00 12,9 -11,6 4,2 10 5 21 12 N 1013,8 60 0,0
15.01.2019 05:00:00 6,2 -5,2 2,8 4 2 18 10 WSW 1013,6 60 0,0
15.01.2019 04:00:00 4,4 -2,7 1,3 6 4 16 8 SSW 1013,9 60 0,0
15.01.2019 03:00:00 3,3 -1,8 1,5 8 5 16 9 S 1013,8 60 0,0
15.01.2019 02:00:00 4,1 -1,3 2,1 10 5 18 10 S 1013,5 60 0,0
15.01.2019 01:00:00 4,3 -1,3 2,4 7 4 18 10 S 1013,1 60 0,0
15.01.2019 00:00:00 4,2 -1,0 2,6 6 3 15 8 SSW 1012,3 60 0,0
14.01.2019 23:00:00 5,3 0,3 2,7 12 6 16 8 SSW 1011,4 60 0,0
14.01.2019 22:00:00 4,6 -1,0 2,8 6 3 15 8 S 1011,2 60 0,0
14.01.2019 21:00:00 6,2 -0,1 3,6 8 5 15 8 S 1010,7 60 0,0
14.01.2019 20:00:00 6,0 0,7 4,4 11 6 16 8 SSW 1009,9 58 0,0
14.01.2019 19:00:00 6,9 0,6 5,5 9 5 17 9 S 1009,4 60 0,0
14.01.2019 18:00:00 7,8 1,6 6,0 6 3 14 8 SSW 1008,7 60 0,0
14.01.2019 17:00:00 12,0 2,7 9,5 3 1 15 8 SSE 1008,1 20 0,0
14.01.2019 16:00:00 17,6 3,1 19,3 6 3 16 8 N 1007,4 60 0,0
14.01.2019 15:00:00 18,1 2,4 19,6 5 3 18 10 NNW 1006,7 58 0,0
14.01.2019 14:00:00 18,2 3,3 19,9 10 6 18 10 NNW 1006,1 19 0,0
14.01.2019 13:00:00 18,6 4,7 20,1 6 3 24 13 N 1005,5 20 0,0
14.01.2019 12:00:00 16,9 6,1 19,1 18 10 39 21 S 1005,4 60 0,0
14.01.2019 11:00:00 16,0 6,7 16,5 23 12 39 21 SSW 1005,7 20 0,0
14.01.2019 10:00:00 15,4 6,7 13,3 18 10 34 19 S 1005,2 46 0,0
14.01.2019 09:00:00 13,5 6,6 11,8 19 11 40 22 S 1005,0 20 0,0
14.01.2019 08:00:00 13,1 6,7 11,8 25 14 42 23 S 1004,4 20 0,0
14.01.2019 07:00:00 13,0 7,0 12,1 22 12 48 26 SSW 1003,6 18 0,0
14.01.2019 06:00:00 13,6 7,1 12,5 28 15 50 27 SSW 1003,5 18 0,0
14.01.2019 05:00:00 13,4 7,4 12,4 25 14 45 24 S 1004,9 20 0,0
14.01.2019 04:00:00 13,3 6,6 12,2 26 14 51 27 SSW 1005,1 59 0,0
14.01.2019 03:00:00 13,3 4,7 11,8 22 12 43 23 SSW 1005,7 60 0,0
14.01.2019 02:00:00 13,6 3,9 11,5 26 14 48 26 SSW 1005,3 60 0,0
14.01.2019 01:00:00 12,5 3,7 11,4 26 14 44 24 SSW 1006,1 60 0,0
14.01.2019 00:00:00 12,6 3,3 8,0 20 11 35 19 SSW 1006,8 60 0,0
13.01.2019 23:00:00 10,0 3,5 6,9 4 2 41 22 SE 1008,1 60 0,0
13.01.2019 22:00:00 10,5 5,3 6,7 15 8 36 19 S 1008,4 52 0,0
13.01.2019 21:00:00 8,3 4,5 5,6 11 6 20 11 SSW 1009,7 34 0,0
13.01.2019 20:00:00 7,8 5,3 5,6 14 8 21 11 SSE 1009,8 36 0,0
13.01.2019 19:00:00 8,5 5,1 7,2 8 4 16 9 S 1011,0 29 0,0
13.01.2019 18:00:00 10,6 6,0 8,2 9 5 22 12 SW 1010,4 30 0,0
13.01.2019 17:00:00 11,0 6,1 10,0 8 4 14 8 SE 1011,1 20 0,0
13.01.2019 16:00:00 13,6 6,2 14,3 7 4 22 12 SSW 1010,3 20 0,0
13.01.2019 15:00:00 15,1 5,3 16,1 11 6 25 13 SSW 1011,2 20 0,0
13.01.2019 14:00:00 14,7 5,5 16,2 10 6 19 10 SSW 1011,6 19 0,0
13.01.2019 13:00:00 13,9 5,0 16,0 6 4 12 6 NW 1012,3 18 0,0
13.01.2019 12:00:00 14,1 4,4 18,1 2 1 5 3 NNE 1013,2 55 0,0
13.01.2019 11:00:00 12,6 2,4 11,9 2 1 5 3 SSE 1013,9 60 0,0
13.01.2019 10:00:00 8,7 2,5 6,0 0 0 11 6 N 1013,4 60 0,0
13.01.2019 09:00:00 5,5 0,8 3,0 7 4 16 9 SSW 1013,0 60 0,0
13.01.2019 08:00:00 4,6 -0,4 3,4 13 7 18 10 SSW 1011,6 60 0,0
13.01.2019 07:00:00 4,3 -0,5 2,0 13 7 18 10 SSW 1012,3 60 0,0
13.01.2019 06:00:00 4,1 -1,1 2,1 8 4 16 8 S 1012,0 60 0,0
13.01.2019 05:00:00 5,1 -0,9 3,1 9 5 15 8 SW 1012,5 60 0,0
13.01.2019 04:00:00 5,2 -1,3 3,6 11 6 17 9 SSE 1012,8 60 0,0
13.01.2019 03:00:00 10,3 -2,1 8,5 9 5 43 23 NNW 1012,6 60 0,0
13.01.2019 02:00:00 11,0 -2,1 10,2 22 12 44 24 S 1011,9 60 0,0
13.01.2019 01:00:00 11,4 -3,9 10,6 28 15 48 26 S 1013,3 60 0,0
13.01.2019 00:00:00 11,8 -4,8 10,0 20 11 40 21 S 1014,4 60 0,0
12.01.2019 23:00:00 12,0 -5,5 7,8 23 13 40 21 S 1015,1 60 0,0
12.01.2019 22:00:00 8,2 -3,3 6,6 20 11 42 23 SSE 1016,3 60 0,0
12.01.2019 21:00:00 7,3 -0,9 2,9 24 13 35 19 S 1017,9 60 0,0
12.01.2019 20:00:00 4,7 -1,1 0,6 6 4 17 9 SSE 1019,4 45 0,0
12.01.2019 19:00:00 4,6 -2,5 3,2 9 5 31 17 S 1019,1 19 0,0
12.01.2019 18:00:00 8,3 0,3 7,2 20 11 27 15 S 1018,7 60 0,0
12.01.2019 17:00:00 8,8 1,9 7,3 8 5 17 9 S 1018,9 60 0,0
12.01.2019 16:00:00 13,0 0,7 13,9 5 3 20 11 S 1019,0 60 0,0
12.01.2019 15:00:00 13,5 -0,2 15,2 13 7 24 13 SSW 1019,1 58 0,0
12.01.2019 14:00:00 13,8 -0,7 15,2 11 6 18 10 SSW 1019,4 41 0,0
12.01.2019 13:00:00 13,5 -3,8 14,9 6 3 16 8 SSE 1020,1 60 0,0

tt = Température de l'air
td = dewpoint
tt 5cm = Température de l'air 5cm
ff = Vitesse du vent
fx = gusts
dd = Direction du vent
ppp = reduced air pressure
vv = visibility
rr = Quantités de précipitations

stations d'obs. à proximité